TimeMDT,TemperatureF,Dew PointF,Humidity,Sea Level PressureIn,VisibilityMPH,Wind Direction,Wind SpeedMPH,Gust SpeedMPH,PrecipitationIn,Events,Conditions,WindDirDegrees,DateUTC
12:51 AM,39.0,28.0,65,30.09,10.0,NE,5.8,-,0.00,,Overcast,40,2013-03-29 06:51:00
1:51 AM,36.0,28.9,76,30.10,10.0,NNW,3.5,-,N/A,,Overcast,330,2013-03-29 07:51:00
2:51 AM,35.1,28.9,78,30.10,10.0,Calm,Calm,-,N/A,,Overcast,0,2013-03-29 08:51:00
3:51 AM,35.1,28.9,78,30.10,10.0,Calm,Calm,-,N/A,,Overcast,0,2013-03-29 09:51:00
4:51 AM,35.1,28.9,78,30.12,10.0,SSW,3.5,-,N/A,,Overcast,200,2013-03-29 10:51:00
5:20 AM,35.6,30.2,81,30.12,8.0,NE,4.6,-,0.02,Rain,Light Rain,40,2013-03-29 11:20:00
5:51 AM,35.1,32.0,89,30.12,10.0,ENE,6.9,-,0.04,Rain,Light Rain,60,2013-03-29 11:51:00
5:59 AM,35.6,32.0,87,30.12,10.0,NE,5.8,-,0.00,,Overcast,50,2013-03-29 11:59:00
6:51 AM,35.1,32.0,89,30.14,10.0,Calm,Calm,-,0.00,Rain,Light Rain,0,2013-03-29 12:51:00
7:51 AM,34.0,32.0,92,30.16,10.0,Calm,Calm,-,0.00,,Overcast,0,2013-03-29 13:51:00
8:51 AM,35.1,33.1,92,30.19,10.0,Calm,Calm,-,N/A,,Overcast,0,2013-03-29 14:51:00
9:51 AM,37.0,35.1,93,30.20,10.0,Calm,Calm,-,N/A,,Overcast,0,2013-03-29 15:51:00
10:51 AM,39.0,34.0,82,30.20,10.0,Calm,Calm,-,N/A,,Overcast,0,2013-03-29 16:51:00
11:51 AM,43.0,35.1,74,30.21,10.0,Calm,Calm,-,N/A,,Overcast,0,2013-03-29 17:51:00
12:51 PM,43.0,34.0,71,30.21,10.0,Calm,Calm,-,N/A,,Overcast,0,2013-03-29 18:51:00
1:51 PM,48.9,36.0,61,30.19,10.0,Calm,Calm,-,N/A,,Overcast,0,2013-03-29 19:51:00
2:51 PM,48.0,34.0,58,30.19,10.0,West,5.8,-,N/A,,Mostly Cloudy,260,2013-03-29 20:51:00
3:51 PM,46.9,34.0,61,30.18,10.0,SE,5.8,-,N/A,,Overcast,140,2013-03-29 21:51:00
4:51 PM,48.9,34.0,56,30.17,10.0,NNW,3.5,-,0.02,,Scattered Clouds,330,2013-03-29 22:51:00
5:51 PM,48.0,33.1,56,30.17,10.0,Calm,Calm,-,0.00,,Mostly Cloudy,0,2013-03-29 23:51:00
6:51 PM,46.0,35.1,66,30.18,10.0,Calm,Calm,-,0.00,Rain,Light Rain,0,2013-03-30 00:51:00
7:51 PM,46.0,36.0,68,30.19,10.0,Calm,Calm,-,0.00,,Overcast,0,2013-03-30 01:51:00
8:51 PM,39.0,34.0,82,30.21,10.0,ENE,3.5,-,0.00,,Clear,70,2013-03-30 02:51:00
9:51 PM,36.0,32.0,86,30.22,10.0,Calm,Calm,-,N/A,,Clear,0,2013-03-30 03:51:00
10:51 PM,34.0,30.0,85,30.23,10.0,Calm,Calm,-,N/A,,Clear,0,2013-03-30 04:51:00
11:51 PM,33.1,28.9,85,30.23,10.0,North,4.6,-,N/A,,Clear,350,2013-03-30 05:51:00